Location: Passau
(48.5830°N, 13.4830°E)
Time: 19:44:25
(UTC+02:00)

Vanguard 3 - Pass Details

Date: 21 May 2024
Orbit: 509 x 3231 km, 33.3° (Epoch: 15 June)

Event Time Altitude Azimuth Distance (km) Brightness Sun altitude
Rises 22:33:43 0° 254° (WSW) 4,976 11.4 -13.4°
Reaches altitude 10° 22:36:43 10° 247° (WSW) 4,309 11.0 -13.7°
Maximum altitude 22:48:24 44° 182° (S) 3,342 9.8 -14.8°
Drops below altitude 10° 23:05:20 10° 119° (ESE) 6,118 11.1 -16.2°
Enters shadow 23:08:32 - 116° (ESE) 6,767 11.4 -16.4°
Sets 23:10:37 0° 114° (ESE) 7,187 - -16.6°
